SCP
0 0 0 0 0 0 0 0 1 1 1 2 5 7 8 8 8 9 11 13 14 15 17 18 19 19 17 13 11 12 14 15 15 14 12 11 11 12 13 12 11 10 10 10
0 0 0 0 0 0 0 0 1 1 1 3 7 10 11 10 9 10 12 15 17 19 20 21 21 19 17 14 12 14 16 17 17 15 12 10 10 11 12 13 12 10 10 10
0 0 0 0 0 0 1 1 1 2 3 6 12 15 14 11 10 11 13 15 18 20 21 22 20 17 17 16 14 15 16 17 16 14 11 11 11 10 11 12 12 11 11 11
0 0 0 1 1 1 1 1 2 3 5 12 19 20 15 11 10 11 12 13 15 17 18 18 16 15 16 16 15 15 15 14 13 13 13 13 13 11 10 11 11 11 11 11
0 0 0 1 1 1 1 2 3 5 9 18 23 21 14 10 9 11 12 13 16 18 17 14 13 13 14 14 15 16 16 14 14 15 16 16 16 13 11 11 11 10 10 10
0 0 1 1 1 1 1 3 5 8 13 19 20 17 13 10 11 13 13 14 17 18 16 13 12 13 14 15 17 18 17 15 14 16 17 18 17 14 13 12 12 11 10 9
0 0 1 1 2 2 3 5 7 9 12 14 14 12 12 12 14 15 15 15 16 17 15 13 13 14 16 19 20 20 16 13 13 15 17 18 18 17 16 15 13 11 10 9
1 1 2 3 4 4 6 8 9 10 9 9 9 10 11 14 15 15 15 15 15 14 13 12 12 14 16 19 19 17 14 13 14 16 18 18 20 22 21 17 13 10 9 8
3 3 4 5 5 6 7 9 9 10 9 8 7 8 10 13 13 13 15 15 14 12 12 12 12 12 13 15 15 13 12 13 15 18 20 22 24 25 22 16 11 9 8 8
4 4 5 5 5 6 6 7 7 8 9 9 8 7 8 12 14 14 15 16 14 13 13 14 13 12 12 13 13 12 12 13 15 19 23 26 25 22 17 12 9 8 9 10
5 5 4 4 4 4 4 5 5 6 7 8 11 12 12 15 17 16 16 16 15 14 14 15 15 14 14 14 14 13 14 14 15 19 24 25 20 13 9 7 6 7 9 11
4 4 4 4 3 3 3 4 5 4 4 6 11 20 23 21 19 17 16 15 15 15 15 15 15 15 15 15 15 15 16 16 15 19 25 23 14 6 4 3 4 4 6 7
5 4 4 4 4 4 4 4 5 4 4 4 9 21 31 28 19 15 14 13 13 14 14 14 14 13 12 13 14 16 18 18 17 19 22 18 10 5 4 3 2 2 2 2
5 4 4 4 4 5 5 5 5 4 4 4 7 15 26 29 21 14 12 11 11 11 11 12 12 11 11 12 14 17 18 18 18 18 16 12 8 6 5 4 3 3 2 1
4 4 3 3 4 4 4 5 5 4 3 5 7 11 17 22 22 20 17 14 11 10 10 11 12 12 12 13 15 16 16 15 15 13 10 8 7 6 5 5 5 4 3 2
3 3 3 3 3 3 4 4 4 4 4 5 8 10 12 15 18 23 24 21 17 15 14 13 12 11 12 12 13 13 13 11 10 10 9 9 7 6 5 5 6 5 4 4
2 2 2 3 4 4 5 5 5 4 5 6 7 9 10 10 13 18 21 22 21 20 18 15 13 13 12 11 11 12 11 10 9 9 9 9 8 6 6 6 6 5 5 4
1 1 2 3 5 6 7 6 5 5 6 6 6 7 7 7 8 11 13 14 16 16 17 16 16 16 15 13 13 13 12 11 10 10 10 10 8 7 7 7 7 7 7 7
1 1 2 3 4 6 6 6 6 6 6 5 6 6 6 5 6 7 7 8 9 11 13 15 17 18 17 16 14 14 13 12 11 11 11 10 9 9 8 8 7 8 9 9
2 2 2 3 4 5 6 6 6 6 5 5 5 5 5 5 5 5 5 6 7 9 11 13 15 16 16 14 12 13 12 11 10 11 11 10 9 9 8 7 6 6 7 8
3 4 4 5 5 6 6 6 5 5 4 4 4 4 4 5 4 4 4 5 6 7 9 11 12 12 11 9 8 9 10 9 8 9 9 9 8 8 6 6 6 6 6 6
5 6 7 7 7 7 6 5 4 3 3 3 3 3 4 4 3 3 3 4 4 5 5 7 7 7 5 5 6 7 7 7 7 6 6 7 6 5 4 5 6 7 9 10
7 7 7 7 6 5 4 3 3 2 2 2 2 3 3 2 2 2 2 2 2 2 3 3 3 2 2 3 4 5 5 5 4 3 3 3 3 3 3 3 4 6 8 11
7 6 6 5 4 4 3 3 2 2 2 2 2 2 2 2 2 1 1 1 1 1 1 1 0 0 1 2 2 3 2 2 2 1 1 1 1 1 1 1 2 2 4 5
5 5 4 4 4 3 3 3 2 2 2 2 2 2 2 2 1 1 1 0 0 0 0 0 0 0 0 1 1 1 1 1 1 0 0 0 0 0 0 0 0 0 0 1
5 5 4 4 4 3 3 2 2 2 2 2 2 2 2 1 1 1 1 0 0 0 0 0 0 0 0 0 0 0 0 0 0 0 0 0 0 0 0 0 0 0 0 1
5 5 5 5 4 3 3 2 2 2 2 2 2 1 1 1 1 1 0 0 0 0 0 0 0 0 0 0 0 0 0 0 0 0 0 0 0 0 0 0 0 0 0 0
Wind_Speed
16 15 13 13 14 15 15 13 11 9 7 5 5 4 4 5 5 6 6 6 6 7 6 6 7 7 7 7 6 7 7 8 7 6 5 5 4 4 4 4 5 3 3 3
15 16 16 16 15 15 15 13 12 11 6 3 6 5 3 3 4 6 6 6 5 6 6 5 5 6 6 6 6 5 6 6 5 6 6 5 4 4 4 4 4 4 4 3
14 16 16 18 15 14 13 12 12 10 5 2 4 5 3 2 4 5 6 6 5 5 5 4 4 4 5 5 5 5 5 5 5 5 5 4 4 4 4 4 3 3 3 3
12 13 18 13 12 12 12 10 8 6 4 2 3 4 4 3 3 4 5 6 6 5 5 4 3 3 3 5 5 5 5 4 4 5 5 4 4 5 4 4 4 4 3 3
10 14 16 12 10 11 10 7 5 4 3 3 3 4 4 3 3 4 5 5 5 4 5 4 4 3 3 3 4 4 4 4 4 4 4 4 4 4 4 3 3 4 3 3
11 14 15 9 7 8 8 6 2 1 1 1 1 2 2 4 5 5 4 5 4 4 4 4 3 3 3 3 3 3 3 3 3 3 3 4 4 3 3 3 4 3 3 3
14 14 10 7 6 5 8 2 3 3 3 2 2 2 3 4 5 5 5 5 5 5 4 4 4 2 3 3 2 1 1 2 2 2 2 3 3 2 3 3 3 3 3 3
12 14 9 4 2 1 2 5 5 5 5 5 5 5 4 4 5 5 5 4 4 4 3 3 3 3 3 3 2 1 1 1 1 1 2 2 2 2 2 3 4 4 3 3
5 4 2 4 5 5 4 4 5 5 5 4 3 2 3 3 4 4 5 3 3 3 3 3 3 2 3 2 2 1 1 1 1 1 1 1 2 2 2 2 3 3 3 3
3 2 0 2 4 5 5 5 5 4 3 2 1 0 1 2 3 3 3 3 3 3 2 2 2 2 2 2 2 1 1 1 1 2 2 1 1 1 1 1 2 2 2 2
3 2 1 0 2 3 3 4 4 3 3 3 2 1 1 2 3 3 2 2 2 2 2 2 2 2 2 2 1 1 0 1 1 2 2 1 1 0 1 0 2 3 2 2
3 1 1 2 1 1 2 3 4 3 4 4 3 2 1 2 3 2 2 2 2 2 2 1 1 2 2 1 1 0 1 1 2 1 1 2 2 1 3 0 1 2 3 3
2 2 1 0 1 2 2 2 3 3 3 3 3 2 2 2 3 3 3 2 1 1 1 1 0 0 1 0 0 0 1 2 3 2 1 1 2 3 2 1 1 1 2 3
2 1 0 0 1 2 3 3 2 2 2 3 3 2 2 2 2 3 3 2 2 1 0 1 1 0 0 0 0 1 2 2 2 2 2 2 2 3 3 3 2 1 2 4
2 2 2 2 1 1 2 2 3 2 2 3 2 1 1 2 2 2 2 2 1 1 1 1 1 0 1 1 1 2 3 2 2 2 3 3 2 3 2 2 2 2 2 2
3 3 3 3 1 2 2 2 3 3 2 2 2 1 1 1 2 2 1 1 1 0 0 0 1 1 1 1 2 3 2 3 3 3 3 3 3 2 2 2 2 1 2 1
4 4 4 3 3 3 3 3 3 4 3 3 1 1 2 2 2 1 1 1 1 1 0 1 1 1 1 2 3 3 3 2 3 4 3 3 3 2 2 2 2 2 1 1
4 4 4 3 3 3 3 4 3 4 2 2 1 1 1 1 1 1 1 0 0 0 1 0 1 1 2 2 2 3 4 3 3 3 2 2 2 3 2 2 2 2 2 1
4 4 4 4 3 3 3 3 3 3 2 1 1 1 1 1 1 1 0 0 1 1 0 2 2 2 3 1 2 3 4 4 3 2 1 2 3 2 2 2 1 1 1 1
4 4 5 4 2 2 2 2 2 2 1 1 0 1 1 1 0 0 0 1 1 1 2 2 2 3 2 2 3 4 4 3 3 2 2 3 2 2 2 2 1 1 1 1
4 3 3 2 1 2 2 2 2 2 1 0 0 0 1 1 1 1 1 0 2 3 2 1 1 2 3 3 4 4 3 3 3 2 2 2 2 2 2 2 1 1 1 1
1 1 1 1 1 1 1 1 2 2 1 0 1 1 1 1 1 1 1 1 2 2 1 1 2 3 4 4 3 2 2 3 3 2 2 2 1 1 2 2 2 2 2 1
0 0 1 0 1 1 1 2 2 1 1 2 2 2 1 2 2 2 2 3 3 3 2 3 4 4 5 3 2 2 3 3 3 3 3 3 2 2 2 3 3 2 2 2
0 1 1 1 1 2 2 2 2 2 2 2 2 2 2 2 2 2 2 3 4 3 3 3 3 4 3 2 2 3 3 3 3 3 3 3 3 3 3 3 3 3 3 3
2 1 1 1 1 2 2 2 2 3 3 3 3 3 3 3 3 3 3 3 4 3 2 3 2 2 2 2 3 3 3 4 4 4 4 3 3 3 3 3 3 3 3 3
1 1 1 2 1 1 1 2 2 2 3 3 3 3 4 3 3 3 2 3 4 3 2 2 2 1 2 2 3 3 3 4 4 4 4 3 4 4 4 4 5 4 4 3
2 2 2 1 1 2 2 3 3 4 4 4 3 3 3 3 3 3 3 2 2 2 3 2 2 2 2 2 3 3 3 3 3 3 3 3 3 3 3 3 3 4 4 4
Wind_Direction
263 267 262 241 231 235 244 247 250 244 233 210 174 149 135 138 144 136 125 124 127 131 138 150 152 155 162 166 169 172 172 175 177 177 180 183 185 194 192 196 206 203 208 212
258 257 260 259 241 233 238 242 244 249 251 192 144 127 124 134 147 130 127 125 119 117 132 136 142 151 154 162 163 163 169 172 167 171 177 181 180 191 190 191 202 205 210 212
256 251 253 250 250 243 236 234 238 240 241 200 131 127 131 150 141 135 129 123 114 114 116 128 145 150 154 161 165 165 164 166 165 174 178 180 183 188 195 194 202 213 212 205
259 259 251 251 260 265 257 246 236 225 222 194 121 118 115 105 114 133 133 129 125 132 130 135 135 133 149 158 150 152 158 167 171 178 184 183 188 193 198 197 202 209 212 201
254 251 252 252 255 259 256 256 264 247 225 163 156 136 116 127 130 123 124 121 123 133 133 135 140 122 114 134 145 153 165 178 181 182 185 188 196 201 196 197 205 209 211 206
246 250 248 251 249 263 252 240 285 354 308 193 183 207 137 117 118 122 116 114 110 113 111 107 100 121 126 138 141 154 164 173 170 181 197 199 195 202 200 200 209 206 207 211
241 248 253 284 279 254 239 223 40 63 49 31 61 79 95 95 96 97 105 109 106 100 97 93 85 89 111 112 121 111 120 170 177 189 203 200 182 193 198 205 208 212 211 213
236 245 245 324 319 332 44 59 61 60 58 54 56 76 93 96 102 106 95 91 105 98 92 91 95 105 109 106 100 93 94 159 164 176 221 186 167 196 206 209 212 211 207 215
237 249 42 42 59 56 61 71 58 49 46 52 51 74 95 107 109 114 113 111 101 100 97 90 87 101 119 111 104 106 113 146 162 176 210 200 191 208 215 214 220 219 220 219
217 212 299 85 74 57 37 48 53 45 32 10 350 16 111 125 127 127 120 118 114 113 109 92 77 74 100 103 94 95 133 172 183 182 194 194 180 199 209 221 235 236 240 236
218 182 201 37 54 65 44 29 29 33 6 331 343 338 261 150 143 138 128 130 124 124 114 91 73 70 75 84 98 119 150 236 226 219 200 172 147 24 213 235 233 222 225 223
269 249 223 139 78 59 45 27 28 30 9 349 352 343 340 112 107 107 116 119 118 111 106 95 82 77 63 53 79 88 259 267 266 239 210 184 161 118 27 220 206 187 208 210
287 323 348 316 26 39 39 27 27 26 6 352 359 7 29 95 108 110 114 110 92 89 98 84 25 118 106 66 49 264 268 279 287 287 262 231 209 206 213 264 297 255 216 200
1 45 43 5 4 17 12 5 360 359 357 5 6 15 44 86 109 120 123 122 113 121 172 232 245 273 37 30 236 259 270 268 272 269 272 256 248 244 226 221 231 248 235 215
300 274 261 280 298 320 338 340 328 329 346 352 345 31 70 96 99 103 110 131 139 175 229 256 262 40 24 310 278 267 270 262 260 273 276 271 264 265 255 234 228 226 235 201
263 261 258 257 273 291 295 307 313 315 317 325 327 52 52 89 98 89 82 98 143 202 90 12 348 21 352 297 288 271 251 246 252 261 264 261 261 257 258 265 262 244 245 212
249 246 248 246 243 262 278 293 309 312 316 319 328 58 57 71 86 90 68 34 32 352 330 299 324 359 326 294 287 284 284 265 249 260 264 265 271 273 268 267 272 277 281 249
246 247 254 261 267 276 292 302 297 298 299 302 307 80 71 73 54 36 12 16 355 311 323 45 43 334 285 282 289 290 282 268 262 267 282 298 296 289 294 292 281 267 265 243
250 248 250 256 262 270 284 294 290 295 306 318 326 30 28 56 46 357 319 262 273 254 2 43 25 303 288 313 290 266 267 268 275 286 306 296 284 286 289 285 291 292 274 261
248 244 241 245 249 261 271 276 287 305 281 241 136 65 62 74 50 308 342 351 351 16 43 38 318 298 313 3 311 278 278 282 283 292 284 276 292 319 323 320 317 315 320 318
252 246 244 242 233 242 237 232 230 236 239 203 123 97 123 93 63 24 335 31 56 53 24 334 306 347 5 341 297 284 293 296 290 294 291 298 315 319 314 311 320 329 326 320
271 246 228 211 224 226 225 185 167 158 147 165 121 120 108 64 43 35 35 52 67 48 345 14 39 29 355 319 299 308 314 312 324 340 342 340 337 329 315 324 330 329 330 331
124 337 14 152 154 149 121 103 104 105 125 111 100 102 83 45 27 33 40 47 52 34 11 23 25 11 344 325 334 345 349 359 1 360 5 8 9 4 356 351 345 341 334 324
116 119 82 66 101 105 94 87 80 82 87 95 103 97 93 86 65 59 57 62 54 51 43 50 39 353 332 352 11 15 19 22 14 7 13 18 21 21 12 3 351 343 334 330
59 63 80 83 106 111 110 117 117 117 113 101 98 89 80 77 72 63 60 61 79 79 60 58 33 339 3 28 32 31 31 33 26 17 23 27 26 24 17 3 351 343 341 342
67 45 59 68 61 129 129 123 109 100 91 82 77 75 73 74 78 80 82 81 80 82 73 61 58 53 36 42 49 46 42 45 37 30 29 27 23 20 15 4 352 343 344 357
74 78 90 102 94 76 82 87 85 86 86 85 78 72 71 71 70 66 63 70 80 78 69 59 53 58 51 50 55 52 51 49 44 40 32 30 22 14 9 359 354 353 355 357